Location: Burgwalden
(48.2830°N, 10.7576°E)
Time: 01:50:03
(UTC+00:00)

Resurs 1-4 Rocket - Pass Details

Date: 26 September 2023
Orbit: 800 x 812 km, 98.7° (Epoch: 01 December)

Event Time Altitude Azimuth Distance (km) Brightness Sun altitude
Rises 01:37:28 0° 11° (NNE) 3,322 6.0 -32.9°
Reaches altitude 10° 01:39:50 10° 8° (N) 2,387 5.1 -32.7°
Enters shadow 01:42:56 35° 354° (N) 1,273 3.3 -32.3°
